TIANLIAN 1-02

Last updated on Jan. 29, 2020, 4:37 a.m. UTC

1 37737U 11032A   20028.82062672 -.00000019  00000-0  00000-0 0  9990
2 37737   2.7986  74.2412 0011360 126.5472  33.0997  1.00271608 31346
UTC
Height (km)
Latitude
Longitude
Inclination
Orbital Period
UTC large
Height (km)
Speed (km/s)
/
Latitude / Longitude
Inclination (degrees)
Orbital Period (minutes)
Azimuth
Elevation
Range (km)
Doppler Factor
iOS Compass Heading
iOS Angle

Next 30 passes for location: Hong Kong

Rise time Rise Azimuth (degrees) Set time Set Azimuth (degrees) Duration Max altitude (degrees)

No matching passes for this satellites